Wind_Speed
23 23 23 23 23 22 22 22 22 22 23 23 23 23 23 23 24 25 25 25 25 26 26 26 26 26 26 26 26 26 26 25 25 25 25 25 24 24 23 23 23 23 23
24 24 24 24 24 24 24 24 24 24 25 25 26 26 26 26 27 28 28 28 28 29 29 29 29 29 29 29 29 28 28 28 28 27 27 27 26 26 26 25 25 24 24
26 26 26 26 26 25 25 26 26 27 27 28 28 29 29 29 30 30 31 31 32 32 32 32 32 32 32 32 32 32 31 31 31 30 30 30 29 29 28 28 28 27 27
28 27 27 27 27 27 27 28 29 30 30 31 32 32 32 32 32 33 33 34 35 35 35 35 35 35 35 35 35 35 35 35 34 34 33 33 32 31 31 31 30 30 30
29 29 29 29 29 29 29 30 31 32 33 34 35 35 35 36 36 36 36 37 37 38 38 38 38 39 39 39 39 39 38 38 38 37 36 36 35 35 34 34 34 33 33
31 31 31 31 31 31 32 33 33 34 35 36 37 37 38 38 38 39 39 40 40 41 41 41 41 42 42 42 42 42 42 41 40 40 40 39 39 38 37 37 36 36 36
33 33 32 32 33 33 34 35 35 36 37 38 39 39 40 40 40 41 42 43 43 43 43 44 44 45 45 45 45 45 45 44 43 43 42 42 41 41 40 40 40 39 39
35 35 34 34 34 35 35 36 38 38 39 40 41 42 42 42 42 44 45 45 45 45 46 46 47 47 47 47 47 48 47 47 46 46 45 44 44 44 44 43 43 42 42
36 36 36 36 37 37 38 39 40 40 41 42 43 44 45 45 45 45 46 47 47 48 48 49 49 50 50 50 50 50 50 50 49 49 48 47 47 46 46 45 44 44 44
38 38 38 38 39 39 40 40 41 42 43 44 45 46 47 47 47 47 46 47 49 50 50 51 51 51 51 51 52 52 51 51 51 50 50 49 49 48 47 45 45 46 46
39 39 39 40 41 41 42 43 43 44 45 46 47 47 47 48 48 48 48 49 50 50 51 52 52 52 52 52 52 52 51 52 52 52 52 52 50 49 47 47 46 46 47
41 41 41 42 43 43 44 45 45 46 47 47 47 48 48 48 48 49 50 51 51 51 52 53 54 54 54 54 54 53 52 52 52 52 52 51 49 50 49 48 48 47 47
43 43 44 44 44 45 45 46 47 47 47 47 48 48 48 48 50 51 52 52 52 52 52 53 54 54 54 55 54 54 52 52 50 51 51 51 50 49 48 48 47 46 46
44 45 45 45 45 46 46 47 47 47 47 47 47 47 48 49 50 51 51 52 52 52 52 51 52 53 53 53 53 53 52 50 51 50 50 49 49 48 47 44 45 46 47
45 45 45 45 46 46 46 46 46 46 46 46 47 47 48 48 49 49 50 51 52 52 50 50 50 50 50 49 51 50 49 50 50 49 50 50 49 49 48 46 46 48 48
45 45 45 45 45 46 46 45 45 45 46 45 45 46 47 47 47 48 49 49 50 50 49 49 49 48 49 49 49 48 49 48 47 48 49 49 47 47 47 48 48 48 48
45 45 45 45 45 45 45 44 44 44 44 44 45 45 45 46 46 46 47 48 48 48 49 48 48 47 46 46 46 46 46 46 46 46 46 45 45 47 47 47 47 48 49
43 44 44 44 44 43 43 42 42 42 42 43 43 44 44 45 45 45 46 46 46 46 46 46 46 46 46 45 44 45 45 45 45 45 45 45 47 48 49 49 49 50 51
42 42 42 42 42 41 41 40 40 40 41 41 42 42 43 43 43 43 44 43 44 44 43 43 43 43 42 43 43 43 43 44 45 46 46 47 48 49 50 50 50 51 52
41 40 40 40 39 39 38 38 38 39 39 40 41 41 41 40 41 41 41 41 41 41 40 40 40 41 41 41 41 42 43 44 45 46 47 48 49 50 50 51 52 53 53
38 38 37 37 37 37 37 37 36 37 37 38 38 38 38 38 39 39 39 38 38 38 38 39 39 40 40 41 42 43 43 45 45 46 48 49 49 51 52 52 53 54 54
35 35 35 35 35 35 35 34 35 35 36 36 36 36 36 37 37 37 37 36 36 37 37 38 39 39 40 41 42 43 44 45 46 48 49 50 51 52 53 53 54 54 55
33 33 33 33 33 33 33 33 34 35 34 34 34 35 35 36 36 36 36 36 37 37 38 38 39 40 41 42 43 44 45 46 47 48 49 50 52 52 54 54 55 55 54
31 31 31 31 31 31 32 32 33 32 32 33 33 33 34 34 34 35 36 37 37 38 38 39 40 41 42 43 44 45 47 48 49 50 50 50 52 53 54 54 54 54 53
29 29 29 29 29 30 30 30 31 31 32 32 32 33 33 34 34 35 36 36 37 38 39 40 41 42 44 45 46 47 48 48 49 50 50 50 51 51 52 52 53 52 51
27 27 27 27 28 28 29 29 30 31 31 31 32 32 33 34 35 35 36 37 38 40 41 42 43 44 45 46 47 48 48 48 48 49 49 49 49 49 49 50 51 50 49
Wind_Direction
273 275 276 277 278 278 278 278 279 279 279 281 282 283 284 285 286 286 286 286 286 287 287 289 290 290 290 291 291 292 292 292 292 292 292 291 290 289 288 286 285 284 283
273 275 276 277 277 278 278 279 279 279 280 281 282 282 283 284 285 285 285 285 285 285 285 286 287 287 287 287 288 288 289 289 289 289 288 288 287 287 286 285 284 283 282
273 275 275 276 277 277 278 278 279 279 280 281 282 282 282 283 284 284 284 284 284 284 284 285 285 286 285 285 285 286 286 286 286 286 286 286 285 284 283 283 282 281 280
272 274 275 276 276 277 278 278 279 279 280 281 281 281 281 282 282 283 283 283 283 283 283 284 284 284 284 284 283 284 284 284 284 284 284 284 284 283 282 282 280 279 279
271 273 274 275 277 278 278 279 279 280 281 281 281 281 282 282 283 283 283 283 283 283 283 283 283 283 283 283 282 282 283 283 283 282 282 282 282 281 281 280 279 278 278
271 272 274 276 277 279 279 280 280 281 281 281 282 283 283 283 284 284 283 283 283 283 283 283 283 282 282 282 282 282 282 281 281 281 280 281 281 280 279 278 278 277 277
270 272 274 276 277 279 280 281 281 282 282 282 283 283 283 284 285 284 283 283 283 283 283 284 283 283 282 282 282 281 281 281 280 280 280 279 279 279 278 277 276 275 275
270 273 275 276 278 280 281 282 282 282 283 283 284 284 285 285 285 284 284 284 284 284 284 284 284 283 283 282 282 281 281 280 279 279 279 278 278 277 278 277 276 274 274
271 273 275 277 278 280 281 282 283 283 284 284 285 285 285 285 284 285 285 285 285 285 285 285 284 284 283 282 281 281 280 280 279 277 277 277 278 278 276 275 275 274 274
271 273 275 277 278 279 281 282 283 284 284 285 285 286 286 286 286 286 286 286 286 286 285 284 284 283 283 282 281 281 279 279 278 276 276 276 276 276 276 274 275 275 274
271 273 275 277 278 280 281 282 283 284 285 286 286 287 287 287 287 288 288 288 287 287 287 286 285 284 282 282 281 280 279 278 277 276 276 276 276 277 276 275 276 276 275
271 273 275 277 278 280 282 283 284 285 286 286 287 287 287 287 288 288 289 289 288 288 287 286 286 285 284 283 281 281 280 278 276 277 276 275 277 277 277 277 277 276 275
270 273 275 276 278 280 281 283 284 285 286 286 287 287 287 288 289 289 289 289 289 289 288 287 285 284 283 283 282 281 278 277 275 276 276 277 278 278 278 277 277 275 275
270 272 274 276 278 280 281 283 284 285 286 286 287 287 287 288 289 289 289 289 289 289 289 288 287 285 284 283 281 280 278 277 277 278 278 278 278 279 280 279 278 277 276
269 271 274 276 278 280 281 283 284 285 285 286 287 287 288 289 289 289 289 289 290 290 289 288 287 286 285 285 283 282 280 280 280 280 279 280 280 280 280 279 279 279 276
269 271 273 276 278 279 281 282 283 284 285 286 286 288 289 289 289 290 290 290 290 289 289 288 288 288 286 285 285 283 281 282 282 280 280 281 282 281 281 280 280 278 276
268 270 273 275 277 279 280 281 282 283 284 285 286 288 289 289 290 291 292 291 291 290 289 288 288 287 287 286 285 285 284 284 282 282 282 281 281 282 282 281 279 278 276
268 271 273 275 277 278 279 281 282 283 284 285 287 288 289 290 291 292 293 293 293 292 291 290 288 288 287 286 286 286 285 285 284 282 283 283 283 284 283 281 280 279 279
269 271 273 275 276 278 279 280 282 283 285 286 288 289 290 292 293 293 293 294 294 293 292 291 290 289 289 287 287 285 286 286 285 284 285 285 285 285 283 283 282 282 280
269 271 273 274 276 277 278 280 282 284 286 287 289 291 291 293 295 296 296 296 296 295 293 293 291 290 291 290 290 289 288 288 287 287 286 286 285 285 285 285 284 283 282
269 271 272 273 275 277 279 281 283 285 287 289 291 292 293 295 296 297 298 298 297 297 297 296 295 294 294 292 291 291 290 289 288 288 288 287 287 286 286 286 285 284 283
268 269 271 273 275 278 279 281 284 287 288 290 291 292 294 296 298 299 299 300 300 300 298 298 297 296 295 294 293 292 291 290 290 289 289 289 288 288 287 287 286 285 284
267 269 271 274 276 278 280 282 285 287 289 290 293 295 296 297 299 299 300 300 302 301 300 299 298 296 296 296 295 294 293 292 291 291 290 289 289 289 288 287 287 286 285
267 270 272 274 276 279 282 284 286 288 289 292 294 296 298 299 300 300 301 301 302 302 301 300 300 299 298 298 297 296 295 294 293 292 292 291 291 291 290 289 288 287 286
267 270 273 275 278 281 283 285 287 289 291 293 295 297 299 300 301 302 302 302 302 303 303 302 301 301 301 300 299 298 298 297 296 295 294 294 293 292 291 290 289 288 287
268 271 274 277 279 282 285 287 289 291 292 295 296 298 300 302 302 303 303 303 304 304 304 304 303 303 303 302 301 300 299 298 297 297 297 296 295 293 292 291 290 289 288
Height
5861 5861 5860 5859 5859 5858 5858 5857 5856 5855 5854 5853 5852 5851 5850 5848 5847 5845 5844 5842 5840 5838 5837 5835 5833 5831 5830 5828 5826 5824 5822 5820 5818 5817 5815 5813 5812 5810 5809 5807 5806 5805 5804
5856 5856 5856 5855 5854 5854 5853 5852 5851 5850 5849 5848 5847 5846 5844 5843 5842 5840 5838 5837 5835 5833 5831 5829 5827 5825 5824 5822 5820 5818 5816 5814 5812 5811 5809 5807 5806 5804 5803 5802 5800 5799 5798
5851 5851 5851 5850 5849 5849 5848 5847 5846 5845 5844 5842 5841 5840 5839 5837 5836 5834 5832 5830 5828 5827 5825 5823 5821 5819 5817 5815 5813 5811 5809 5807 5805 5804 5802 5801 5799 5798 5796 5795 5794 5793 5792
5846 5845 5845 5845 5844 5843 5842 5841 5840 5839 5838 5836 5835 5834 5832 5831 5829 5827 5826 5823 5821 5819 5817 5815 5813 5811 5809 5807 5805 5803 5801 5800 5798 5796 5795 5793 5792 5790 5789 5788 5787 5786 5785
5840 5840 5839 5839 5838 5837 5836 5835 5834 5832 5831 5829 5828 5826 5825 5824 5822 5820 5818 5816 5813 5811 5809 5807 5805 5803 5801 5799 5797 5795 5793 5791 5789 5788 5786 5785 5783 5782 5781 5780 5779 5778 5778
5833 5833 5833 5832 5831 5831 5830 5828 5827 5826 5824 5822 5820 5819 5817 5816 5814 5812 5810 5807 5805 5803 5800 5798 5796 5794 5792 5790 5788 5786 5784 5782 5780 5778 5777 5775 5774 5773 5772 5771 5770 5769 5769
5826 5826 5826 5825 5824 5824 5822 5821 5819 5818 5816 5814 5812 5811 5809 5807 5806 5803 5800 5798 5796 5793 5791 5788 5786 5784 5781 5779 5777 5775 5773 5772 5770 5769 5767 5765 5764 5763 5762 5761 5760 5759 5759
5818 5818 5818 5818 5817 5816 5814 5813 5811 5809 5807 5805 5803 5801 5800 5799 5796 5793 5791 5788 5786 5783 5781 5778 5775 5773 5770 5768 5766 5764 5762 5760 5759 5758 5756 5754 5753 5751 5750 5750 5749 5748 5748
5810 5810 5810 5809 5808 5807 5806 5804 5802 5800 5799 5796 5794 5791 5790 5789 5786 5784 5781 5778 5775 5773 5770 5767 5764 5761 5759 5756 5754 5752 5750 5748 5746 5745 5744 5742 5741 5739 5738 5738 5737 5736 5736
5802 5802 5801 5801 5800 5798 5797 5795 5793 5791 5789 5787 5784 5781 5779 5777 5775 5773 5771 5768 5764 5761 5758 5755 5752 5749 5747 5744 5741 5739 5737 5735 5733 5731 5730 5729 5728 5726 5725 5725 5724 5724 5723
5793 5793 5792 5791 5790 5789 5787 5785 5783 5781 5778 5776 5773 5771 5768 5765 5763 5760 5759 5757 5753 5749 5746 5743 5740 5737 5734 5731 5728 5726 5723 5721 5719 5717 5715 5714 5713 5712 5712 5711 5711 5711 5710
5784 5783 5782 5781 5780 5779 5777 5775 5773 5770 5768 5765 5763 5760 5757 5754 5752 5748 5746 5744 5741 5737 5733 5729 5726 5723 5720 5717 5714 5711 5709 5707 5704 5702 5701 5700 5698 5698 5698 5697 5697 5697 5696
5774 5773 5773 5771 5770 5768 5767 5765 5762 5760 5757 5754 5752 5749 5746 5743 5740 5737 5733 5730 5727 5724 5720 5716 5712 5709 5705 5702 5699 5697 5694 5692 5690 5688 5686 5685 5684 5684 5684 5684 5683 5683 5682
5764 5763 5762 5761 5760 5758 5756 5754 5751 5749 5746 5744 5741 5738 5735 5732 5728 5724 5721 5717 5713 5711 5707 5703 5698 5694 5691 5688 5685 5682 5680 5678 5677 5675 5673 5672 5672 5671 5670 5670 5669 5669 5669
5754 5753 5752 5751 5749 5747 5745 5743 5741 5738 5736 5733 5730 5727 5724 5720 5716 5713 5709 5704 5700 5696 5693 5689 5685 5681 5677 5674 5671 5669 5666 5665 5663 5661 5660 5659 5659 5658 5657 5657 5656 5656 5655
5743 5742 5741 5740 5739 5737 5735 5733 5730 5728 5725 5722 5719 5716 5713 5709 5705 5701 5697 5692 5687 5682 5679 5676 5672 5668 5664 5661 5658 5656 5653 5652 5650 5648 5647 5646 5645 5644 5643 5642 5642 5641 5640
5732 5732 5731 5730 5728 5726 5724 5722 5720 5718 5715 5712 5709 5705 5702 5698 5694 5689 5685 5680 5675 5670 5666 5663 5660 5656 5652 5649 5646 5644 5641 5639 5638 5636 5634 5633 5632 5631 5629 5628 5627 5626 5625
5722 5721 5720 5719 5718 5716 5714 5712 5710 5707 5704 5702 5698 5695 5691 5687 5682 5678 5673 5668 5664 5659 5654 5651 5648 5644 5641 5638 5635 5632 5630 5628 5626 5624 5622 5620 5618 5617 5615 5614 5612 5611 5609
5711 5711 5710 5709 5707 5706 5704 5702 5699 5697 5694 5691 5688 5684 5680 5676 5672 5667 5662 5657 5652 5648 5643 5640 5636 5633 5629 5627 5624 5621 5619 5616 5614 5612 5609 5607 5605 5603 5601 5599 5597 5595 5593
5701 5701 5700 5699 5697 5696 5694 5692 5689 5687 5684 5681 5677 5674 5670 5666 5661 5656 5651 5646 5642 5638 5633 5629 5626 5623 5620 5617 5613 5610 5607 5604 5602 5599 5596 5593 5591 5588 5585 5583 5581 5578 5576
5692 5691 5690 5689 5688 5686 5684 5682 5680 5677 5674 5671 5667 5664 5660 5656 5651 5646 5641 5637 5632 5628 5624 5620 5616 5613 5609 5606 5603 5599 5596 5593 5589 5586 5583 5580 5577 5573 5570 5567 5564 5561 5558
5682 5682 5681 5680 5679 5677 5675 5673 5670 5668 5665 5661 5658 5654 5650 5646 5641 5637 5632 5628 5623 5619 5615 5611 5607 5603 5599 5596 5592 5588 5584 5580 5577 5574 5569 5565 5561 5558 5554 5550 5547 5544 5541
5674 5673 5672 5671 5669 5668 5666 5664 5661 5659 5655 5652 5649 5645 5641 5637 5632 5628 5623 5619 5615 5610 5606 5602 5597 5593 5589 5585 5581 5576 5571 5567 5563 5559 5555 5550 5545 5542 5537 5533 5529 5526 5522
5665 5664 5664 5662 5661 5659 5657 5655 5652 5649 5646 5643 5640 5636 5632 5628 5624 5619 5615 5610 5606 5601 5597 5593 5588 5583 5578 5573 5568 5564 5559 5554 5549 5544 5540 5536 5529 5525 5520 5515 5511 5507 5504
5657 5656 5655 5654 5653 5651 5648 5646 5643 5641 5638 5634 5631 5627 5623 5619 5615 5611 5606 5602 5597 5592 5587 5582 5577 5572 5567 5561 5556 5551 5545 5540 5535 5529 5524 5520 5515 5510 5504 5498 5494 5490 5487
5649 5648 5647 5646 5644 5643 5640 5638 5635 5632 5629 5626 5622 5619 5615 5611 5606 5602 5598 5593 5588 5583 5577 5572 5566 5561 5555 5549 5543 5537 5531 5526 5520 5515 5509 5505 5499 5494 5490 5484 5478 5473 5470